Location: Newark
(49.3000°N, 9.4667°E)
Time: 00:42:09
(UTC+00:00)

Tiros 1 - Pass Details

Date: 30 May 2019
Orbit: 631 x 664 km, 48.4° (Epoch: 15 June)

Event Time Altitude Azimuth Distance (km) Brightness Sun altitude
Rises 06:27:36 0° 196° (SSW) 2,905 10.3 27.2°
Reaches altitude 10° 06:30:45 10° 174° (S) 2,003 9.8 27.8°
Maximum altitude 06:33:25 15° 138° (SE) 1,681 10.0 28.2°
Drops below altitude 10° 06:36:06 10° 103° (ESE) 2,016 11.2 28.6°
Sets 06:39:16 0° 81° (E) 2,933 11.7 29.1°
